Location: Roc des P�zouls
(43.9667°N, 3.5500°E)
Time: 20:42:40
(UTC+00:00)

Cosmos 1437 - Pass Details

Date: 14 November 2019
Orbit: 380 x 384 km, 81.2° (Epoch: 07 December)

Event Time Altitude Azimuth Distance (km) Brightness Sun altitude
Rises 05:39:42 0° 175° (S) 2,243 6.7 -10.8°
Reaches altitude 10° 05:41:44 10° 168° (SSE) 1,397 5.8 -10.5°
Maximum altitude 05:44:36 41° 96° (E) 566 4.1 -10.0°
Drops below altitude 10° 05:47:31 10° 24° (NNE) 1,412 5.5 -9.5°
Sets 05:49:35 0° 17° (NNE) 2,272 6.5 -9.1°
